Location: Byhalia Creek
(34.8270°N, 89.8040°W)
Time: 21:24:34
(UTC+00:00)

Spot 2 Rocket - Pass Details

Date: 22 April 2026
Orbit: 752 x 766 km, 98.3° (Epoch: 21 May)

Event Time Altitude Azimuth Distance (km) Brightness Sun altitude
Exits shadow 02:42:41 58° 76° (ENE) 877 3.5 -24.1°
Maximum altitude 02:42:43 58° 74° (ENE) 877 3.5 -24.1°
Drops below altitude 10° 02:47:38 10° 356° (N) 2,281 6.4 -24.9°
Sets 02:49:58 0° 353° (N) 3,208 7.4 -25.3°
